This demonstration page uses our WeatherBlox Daily Observations layout. Learn more.

Left ArrowRight Arrow

44.31136, -96.79839

Hourly Observations for September 23, 2021

Temp ( °F °C ) Dew Point ( °F °C ) Humidity (%) Winds ( mph kmh ) Pressure ( in mb ) Visibility ( mi km ) Precip ( " mm )
12:56 am 00:56 Clear 52 11.1 39 3.9 61 61 SSE 13 20 30.15 1021 10 16 0.00 0.00
1:56 am 01:56 Clear 51 10.6 39 3.9 64 64 SSE 12 19 30.14 1021 10 16 0.00 0.00
2:56 am 02:56 Clear 49 9.4 40 4.4 71 71 SSE 12 19 30.14 1021 10 16 0.00 0.00
3:56 am 03:56 Clear 48 8.9 40 4.4 74 74 SE 10 17 30.13 1020 10 16 0.00 0.00
4:56 am 04:56 Clear 48 8.9 40 4.4 74 74 SSE 12 19 30.11 1020 10 16 0.00 0.00
5:56 am 05:56 Clear 48 8.9 39 3.9 71 71 SSE 12 19 30.09 1019 10 16 0.00 0.00
6:56 am 06:56 Clear 47 8.3 39 3.9 74 74 SSE 14 22 30.09 1019 10 16 0.00 0.00
7:56 am 07:56 Sunny 48 8.9 40 4.4 74 74 SSE 14 22 30.08 1019 10 16 0.00 0.00
8:56 am 08:56 Sunny 53 11.7 41 5 64 64 SSE 13 20 30.07 1018 10 16 0.00 0.00
9:56 am 09:56 Sunny 59 15 41 5 51 51 SSE 17 28 30.05 1018 10 16 0.00 0.00
10:56 am 10:56 Sunny 64 17.8 41 5 43 43 S 20 31 30.02 1017 10 16 0.00 0.00
11:56 am 11:56 Sunny 67 19.4 44 6.7 44 44 SSE 20 31 30.01 1016 10 16 0.00 0.00
12:56 pm 12:56 Sunny 70 21.1 44 6.7 39 39 S 18 30 29.98 1015 10 16 0.00 0.00
1:56 pm 13:56 Sunny 71 21.7 46 7.8 41 41 S 15 24 29.96 1015 10 16 0.00 0.00
2:56 pm 14:56 Sunny 73 22.8 46 7.8 38 38 S 16 26 29.94 1014 10 16 0.00 0.00
3:56 pm 15:56 Sunny 74 23.3 47 8.3 38 38 SSE 12 19 29.93 1014 10 16 0.00 0.00
4:56 pm 16:56 Sunny 75 23.9 48 8.9 39 39 S 15 24 29.91 1013 10 16 0.00 0.00
5:56 pm 17:56 Sunny 75 23.9 49 9.4 40 40 S 9 15 29.92 1013 10 16 0.00 0.00
6:56 pm 18:56 Sunny 71 21.7 49 9.4 46 46 S 6 9 29.92 1013 10 16 0.00 0.00
7:56 pm 19:56 Clear 67 19.4 50 10 55 55 SE 6 9 29.93 1013 10 16 0.00 0.00
8:56 pm 20:56 Clear 63 17.2 50 10 63 63 ESE 3 6 29.93 1014 10 16 0.00 0.00
9:56 pm 21:56 Clear 61 16.1 49 9.4 65 65 SE 5 7 29.92 1013 10 16 0.00 0.00
10:56 pm 22:56 Clear 55 12.8 49 9.4 80 80 Calm 29.93 1013 10 16 0.00 0.00
11:56 pm 23:56 Clear 54 12.2 48 8.9 80 80 Calm 29.91 1013 10 16 0.00 0.00

Powered by AerisWeather